When you browse on this site, cookies collect data to enhance your experience and personalize the content and advertising you see.
Visit our Privacy Policy to learn more. By continuing to use the site, you agree to this use of cookies and data.
  • In Hungary
  • List of Countries
  • For 7 days
  • Water Temperature
  • Satellite Maps
  • Weather Map
  • News
  • Weather Widgets
  • user-avatar
    Login

    Hourly Weather Lubiatowo

    Today, 16 January, Wednesday

    Time Temperature Precipitation Wind Pressure Humidity
    00:00 +2°C° 0.1 mm 9 mps 743 mmHg 86%
    01:00 +2°C° 0 mm 8 mps 743 mmHg 85%
    02:00 +3°C° 0.4 mm 7 mps 744 mmHg 87%
    03:00 +3°C° 0.4 mm 7 mps 744 mmHg 89%
    04:00 +3°C° 0.4 mm 6 mps 744 mmHg 91%
    05:00 +3°C° 0.6 mm 6 mps 744 mmHg 91%
    06:00 +3°C° 0.6 mm 7 mps 745 mmHg 90%
    07:00 +3°C° 0 mm 6 mps 745 mmHg 91%
    08:00 +3°C° 0.1 mm 7 mps 746 mmHg 88%
    09:00 +4°C° 0.1 mm 7 mps 746 mmHg 86%
    10:00 +4°C° 0.1 mm 7 mps 746 mmHg 84%
    11:00 +4°C° 0 mm 7 mps 746 mmHg 82%
    12:00 +4°C° 0 mm 7 mps 746 mmHg 81%
    13:00 +4°C° 0 mm 7 mps 746 mmHg 79%
    14:00 +4°C° 0 mm 7 mps 746 mmHg 80%
    15:00 +4°C° 0 mm 6 mps 746 mmHg 81%
    16:00 +3°C° 0 mm 5 mps 746 mmHg 82%
    17:00 +3°C° 0 mm 5 mps 746 mmHg 83%
    18:00 +3°C° 0 mm 5 mps 745 mmHg 84%
    19:00 +2°C° 0 mm 5 mps 745 mmHg 85%
    20:00 +2°C° 0 mm 5 mps 745 mmHg 84%
    21:00 +1°C° 0 mm 5 mps 744 mmHg 84%
    22:00 +1°C° 0 mm 5 mps 744 mmHg 83%
    23:00 +1°C° 0 mm 5 mps 743 mmHg 82%

    Tomorrow, 17 January, Thursday

    Time Temperature Precipitation Wind Pressure Humidity
    00:00 +1°C° 0 mm 5 mps 743 mmHg 81%
    01:00 +1°C° 0 mm 5 mps 742 mmHg 80%
    02:00 +1°C° 0 mm 5 mps 742 mmHg 78%
    03:00 +1°C° 0 mm 6 mps 741 mmHg 75%
    04:00 +1°C° 0 mm 6 mps 741 mmHg 73%
    05:00 +1°C° 0 mm 6 mps 740 mmHg 72%
    06:00 +1°C° 0 mm 6 mps 740 mmHg 71%
    07:00 0°C° 0 mm 7 mps 740 mmHg 70%
    08:00 0°C° 0 mm 7 mps 740 mmHg 72%
    09:00 +1°C° 0 mm 8 mps 740 mmHg 74%
    10:00 +2°C° 0 mm 8 mps 741 mmHg 77%
    11:00 +2°C° 0 mm 8 mps 741 mmHg 73%
    12:00 +4°C° 0 mm 8 mps 741 mmHg 70%
    13:00 +5°C° 0 mm 8 mps 741 mmHg 66%
    14:00 +4°C° 0 mm 7 mps 741 mmHg 68%
    15:00 +4°C° 0 mm 6 mps 740 mmHg 70%
    16:00 +3°C° 0 mm 5 mps 740 mmHg 72%
    17:00 +3°C° 0.8 mm 5 mps 740 mmHg 75%
    18:00 +3°C° 0.8 mm 5 mps 740 mmHg 78%
    19:00 +2°C° 0.8 mm 6 mps 740 mmHg 81%
    20:00 +2°C° 0.5 mm 6 mps 741 mmHg 77%
    21:00 0°C° 0.5 mm 7 mps 742 mmHg 73%
    22:00 0°C° 0.5 mm 7 mps 742 mmHg 69%
    23:00 -1°C° 0 mm 8 mps 743 mmHg 69%

    Day after tomorrow, 18 January, Friday

    Time Temperature Precipitation Wind Pressure Humidity
    00:00 -2°C° 0 mm 8 mps 743 mmHg 70%
    01:00 -2°C° 0 mm 8 mps 744 mmHg 70%
    02:00 -4°C° 0.1 mm 8 mps 744 mmHg 69%
    03:00 -4°C° 0.1 mm 8 mps 744 mmHg 69%
    04:00 -4°C° 0.1 mm 9 mps 745 mmHg 68%
    05:00 -4°C° 0 mm 9 mps 746 mmHg 69%
    06:00 -4°C° 0 mm 9 mps 746 mmHg 70%
    07:00 -4°C° 0 mm 9 mps 747 mmHg 71%
    08:00 -4°C° 0 mm 8 mps 749 mmHg 73%
    09:00 -2°C° 0 mm 8 mps 750 mmHg 75%
    10:00 -2°C° 0 mm 7 mps 751 mmHg 77%
    11:00 -2°C° 0 mm 6 mps 752 mmHg 73%
    12:00 -1°C° 0 mm 6 mps 752 mmHg 70%
    13:00 0°C° 0 mm 5 mps 753 mmHg 66%
    14:00 -1°C° 0 mm 5 mps 753 mmHg 69%
    15:00 -2°C° 0 mm 4 mps 754 mmHg 73%
    16:00 -1°C° 0 mm 3 mps 754 mmHg 76%
    17:00 -2°C° 0 mm 3 mps 755 mmHg 79%
    18:00 -2°C° 0 mm 3 mps 755 mmHg 81%
    19:00 -2°C° 0 mm 3 mps 755 mmHg 84%
    20:00 -2°C° 0 mm 3 mps 755 mmHg 82%
    21:00 -2°C° 0 mm 3 mps 755 mmHg 81%
    22:00 -2°C° 0 mm 3 mps 755 mmHg 80%
    23:00 -2°C° 0 mm 3 mps 755 mmHg 78%

    19 January, Saturday

    Time Temperature Precipitation Wind Pressure Humidity
    00:00 -3°C° 0 mm 4 mps 755 mmHg 77%
    01:00 -4°C° 0 mm 4 mps 755 mmHg 76%
    02:00 -4°C° 0 mm 3 mps 755 mmHg 77%
    03:00 -4°C° 0 mm 3 mps 755 mmHg 77%
    04:00 -4°C° 0 mm 3 mps 755 mmHg 78%
    05:00 -4°C° 0 mm 3 mps 755 mmHg 79%
    06:00 -3°C° 0 mm 2 mps 755 mmHg 80%
    07:00 -3°C° 0 mm 2 mps 755 mmHg 81%
    08:00 -2°C° 0 mm 2 mps 755 mmHg 79%
    09:00 -2°C° 0 mm 2 mps 755 mmHg 76%
    10:00 -1°C° 0 mm 2 mps 755 mmHg 74%
    11:00 +1°C° 0 mm 2 mps 755 mmHg 70%
    12:00 +1°C° 0 mm 2 mps 755 mmHg 67%
    13:00 +2°C° 0 mm 2 mps 754 mmHg 64%
    14:00 +1°C° 0 mm 2 mps 754 mmHg 66%
    15:00 +2°C° 0 mm 1 mps 754 mmHg 69%
    16:00 +1°C° 0 mm 1 mps 753 mmHg 72%
    17:00 0°C° 0 mm 1 mps 753 mmHg 72%
    18:00 0°C° 0 mm 1 mps 753 mmHg 72%
    19:00 0°C° 0 mm 1 mps 753 mmHg 72%
    20:00 0°C° 0 mm 1 mps 753 mmHg 70%
    21:00 -1°C° 0 mm 1 mps 753 mmHg 69%
    22:00 -1°C° 0 mm 1 mps 753 mmHg 67%
    23:00 -1°C° 0 mm 1 mps 753 mmHg 66%

    20 January, Sunday

    Time Temperature Precipitation Wind Pressure Humidity
    00:00 -1°C° 0 mm 1 mps 753 mmHg 65%
    01:00 -1°C° 0 mm 1 mps 753 mmHg 65%
    02:00 -1°C° 0 mm 1 mps 752 mmHg 65%
    03:00 -1°C° 0 mm 1 mps 752 mmHg 66%
    04:00 -1°C° 0 mm 1 mps 752 mmHg 67%
    05:00 -1°C° 0 mm 1 mps 752 mmHg 68%
    06:00 -2°C° 0 mm 1 mps 752 mmHg 69%
    07:00 -4°C° 0 mm 2 mps 752 mmHg 71%
    08:00 -1°C° 0 mm 1 mps 752 mmHg 69%
    09:00 -1°C° 0 mm 1 mps 752 mmHg 67%
    10:00 0°C° 0 mm 1 mps 753 mmHg 65%
    11:00 +1°C° 0 mm 1 mps 752 mmHg 63%
    12:00 +1°C° 0 mm 1 mps 752 mmHg 60%
    13:00 +2°C° 0 mm 1 mps 752 mmHg 57%
    14:00 +1°C° 0 mm 1 mps 752 mmHg 60%
    15:00 +1°C° 0 mm 1 mps 752 mmHg 63%
    16:00 0°C° 0 mm 1 mps 752 mmHg 66%
    17:00 0°C° 0 mm 1 mps 753 mmHg 68%
    18:00 -1°C° 0 mm 1 mps 753 mmHg 70%
    19:00 -1°C° 0 mm 1 mps 753 mmHg 71%
    20:00 -1°C° 0 mm 1 mps 754 mmHg 74%
    21:00 -3°C° 0 mm 2 mps 754 mmHg 77%
    22:00 -3°C° 0 mm 2 mps 754 mmHg 80%
    23:00 -4°C° 0 mm 2 mps 755 mmHg 84%

    21 January, Monday

    Time Temperature Precipitation Wind Pressure Humidity
    00:00 -4°C° 0 mm 2 mps 755 mmHg 88%
    01:00 -4°C° 0 mm 2 mps 756 mmHg 91%
    02:00 -4°C° 0 mm 2 mps 756 mmHg 88%
    03:00 -4°C° 0 mm 2 mps 756 mmHg 85%
    04:00 -4°C° 0 mm 2 mps 757 mmHg 82%
    05:00 -5°C° 0 mm 2 mps 757 mmHg 79%
    06:00 -5°C° 0 mm 2 mps 758 mmHg 77%
    07:00 -5°C° 0 mm 2 mps 758 mmHg 75%
    08:00 -4°C° 0 mm 2 mps 759 mmHg 72%
    09:00 -4°C° 0 mm 2 mps 759 mmHg 69%
    10:00 -3°C° 0 mm 2 mps 760 mmHg 66%
    11:00 -3°C° 0 mm 2 mps 760 mmHg 63%
    12:00 -2°C° 0 mm 2 mps 760 mmHg 59%
    13:00 -2°C° 0 mm 2 mps 760 mmHg 56%
    14:00 -2°C° 0 mm 2 mps 760 mmHg 59%
    15:00 -3°C° 0 mm 2 mps 760 mmHg 62%
    16:00 -1°C° 0 mm 1 mps 761 mmHg 65%
    17:00 -2°C° 0 mm 1 mps 761 mmHg 66%
    18:00 -2°C° 0 mm 1 mps 761 mmHg 68%
    19:00 -3°C° 0 mm 0 mps 761 mmHg 70%
    20:00 -3°C° 0 mm 0 mps 761 mmHg 70%
    21:00 -4°C° 0 mm 0 mps 761 mmHg 71%
    22:00 -4°C° 0 mm 0 mps 762 mmHg 72%
    23:00 -4°C° 0 mm 0 mps 761 mmHg 72%
    Show more